Weather Roundup
Issued by NWS

Home | Current Version | Previous Version | Text Only | Print | Product List | Glossary On
Versions: 1 2 3 4 5 6 7 8 9 10 11 12 13 14 15 16 17 18 19 20 21 22 23 24 25 26 27 28 29 30 31 32 33 34 35 36 37 38 39 40 41 42 43 44 45 46 47 48 49 50
000
NZUS93 KARX 240310
HRRWXR

CURRENT HOURLY OBSERVATIONS ACROSS
MUCH OF THE UPPER MISSISSIPPI VALLEY
NATIONAL WEATHER SERVICE LA CROSSE WI
1000 PM CDT SAT MAY 23 2015


...SOUTHEAST MINNESOTA...


CITY           SKY/WX    TMP DP  RH WIND       PRES   REMARKS
ROCHESTER      MOCLDY    63  47  55 SE7       30.15R
ROCHESTER/MAYO MOCLDY    69  47  45 SE5       30.14R
WINONA         CLOUDY    63  54  72 CALM      30.14S
AUSTIN         CLOUDY    64  48  55 CALM      30.12S
ALBERT LEA     CLOUDY    64  50  59 CALM      30.12R
DODGE CENTER   MOCLDY    64  46  52 S8        30.14R
PRESTON        CLOUDY    64  46  52 CALM      30.15S
OWATONNA       CLOUDY    66  48  52 CALM      30.13R
FARIBAULT      MOCLDY    63  57  82 S3        30.14R
$$

...ELSEWHERE IN MINNESOTA...


CITY           SKY/WX    TMP DP  RH WIND       PRES   REMARKS
MINNEAPOLIS    MOCLDY    64  46  52 E9        30.13S
INTNL FALLS    CLEAR     53  43  68 SW3       30.09R
DULUTH         PTCLDY    62  42  47 W3        30.15S
RED WING       CLOUDY    64  45  48 SE7       30.12R
REDWOOD FALLS  CLOUDY    62  49  62 NE6       30.10S
MANKATO        CLOUDY    64  54  68 E5        30.12R
WORTHINGTON    CLOUDY    63  48  59 SE5       30.11R
FAIRMONT       CLOUDY    64  48  55 SE8       30.11R
$$

...SOUTHWEST WISCONSIN...


CITY           SKY/WX    TMP DP  RH WIND       PRES   REMARKS
LA CROSSE      PTCLDY    67  49  52 SE5       30.13R
PRAIRIE DU CHI PTCLDY    63  46  55 CALM      30.14R
BOSCOBEL       CLEAR     59  49  69 CALM      30.16R
LONE ROCK      CLEAR     59  50  72 CALM      30.16R
PLATTEVILLE    CLEAR     68  46  45 SE6       30.17R
FORT MC COY    PTCLDY    59  50  70 CALM      30.17R
CAMP DOUGLAS   MOCLDY    58  56  94 E5        30.16R
VIROQUA        FAIR      65  43  44 SE6       30.17R
WIS DELLS      CLEAR     61  43  51 CALM      30.17S
$$

...ELSEWHERE IN WISCONSIN...


CITY           SKY/WX    TMP DP  RH WIND       PRES   REMARKS
MILWAUKEE      MOCLDY    59  41  51 E3        30.20R
MADISON        MOCLDY    61  45  55 CALM      30.17R
GREEN BAY      PTCLDY    65  41  41 S7        30.18R
EAU CLAIRE     CLOUDY    63  45  51 NE6       30.15R
BLACK RVR FLS  CLOUDY    59  50  72 CALM      30.15R
MEDFORD        CLOUDY    57  48  71 E3        30.19R
WAUSAU         MOCLDY    63  45  51 CALM      30.17R
WIS RAPIDS     CLOUDY    63  43  48 CALM      30.18R
MARSHFIELD     CLOUDY    65  46  50 CALM      30.17R
RICE LAKE      CLOUDY    61  53  75 S3        30.19R
$$

...NORTHEAST IOWA...


CITY           SKY/WX    TMP DP  RH WIND       PRES   REMARKS
DECORAH        MOCLDY    66  48  52 SE5       30.14S
MASON CITY     CLOUDY    66  51  58 CALM      30.12S
CHARLES CITY   CLOUDY    68  46  45 SE8       30.13S
OELWEIN        MOCLDY    66  52  59 S7        30.15R
$$

...ELSEWHERE IN IOWA...


CITY           SKY/WX    TMP DP  RH WIND       PRES   REMARKS
DES MOINES     CLOUDY    69  53  56 SE7       30.10S
IOWA CITY      MOCLDY    65  51  60 CALM      30.16R
FORT DODGE     CLOUDY    63  54  72 E3        30.10F
$$

...NORTHERN ILLINOIS...


CITY           SKY/WX    TMP DP  RH WIND       PRES   REMARKS
CHICAGO-OHARE  PTCLDY    63  43  48 SE8       30.19R
CHICAGO-MIDWAY PTCLDY    69  45  41 SE3       30.20R
MOLINE         MOCLDY    61  50  67 SE5       30.15R
ROCKFORD       PTCLDY    66  47  50 SE3       30.20R
PEORIA         CLOUDY    72  49  44 S6        30.18R
$$

NOTE: "FAIR" INDICATES FEW OR NO CLOUDS BELOW 12,000 FEET WITH NO
SIGNIFICANT WEATHER AND/OR OBSTRUCTIONS TO VISIBILITY. WIND
SPEEDS ARE IN MILES-PER-HOUR.



USA.gov is the U.S. government's official web portal to all federal, state and local government web resources and services.